Overview Statistics Trail Chart Weather Telemetry Raw packets
 

This is the latest recevied weather packets stored in our database for station/object KN6WGU. If no packets are shown the sender has not sent any weather packets the latest 10 day(s).

<< 101 102 103 104 105 106 107 >>
Time Temp. Humidity Pressure Rain* Wind** Luminosity Snow
1787853674 25.56° C 68% 1007.8 hPa 0 mm - 656 W/m² -
1787853368 25.56° C 74% 1007.8 hPa 0 mm - 632 W/m² -
1787853062 25.56° C 71% 1007.9 hPa 0 mm - 187 W/m² -
1787852757 25.56° C 71% 1007.9 hPa 0 mm - 180 W/m² -
1787852456 25.56° C 69% 1007.7 hPa 0 mm - 214 W/m² -
1787852156 25.56° C 73% 1007.8 hPa 0 mm - 113 W/m² -
1787851851 25° C 72% 1008 hPa 0 mm - 94 W/m² -
1787851549 25° C 74% 1007.9 hPa 0 mm - 191 W/m² -
1787851244 25° C 72% 1007.7 hPa 0 mm - 188 W/m² -
1787850939 24.44° C 75% 1007.9 hPa 0 mm - 82 W/m² -
1787850631 24.44° C 77% 1007.9 hPa 0 mm - 294 W/m² -
1787850330 24.44° C 80% 1008 hPa 0 mm - 187 W/m² -
1787850021 24.44° C 82% 1007.9 hPa 0 mm - 76 W/m² -
1787849720 23.89° C 83% 1007.8 hPa 0 mm - 71 W/m² -
1787849410 23.89° C 82% 1008 hPa 0 mm - 82 W/m² -
1787849109 23.89° C 81% 1008 hPa 0 mm - 67 W/m² -
1787848803 23.89° C 82% 1007.7 hPa 0 mm - 70 W/m² -
1787848503 23.89° C 83% 1007.8 hPa 0 mm - 97 W/m² -
1787848197 23.89° C 82% 1007.8 hPa 0 mm - 70 W/m² -
1787847896 23.89° C 82% 1007.7 hPa 0 mm - 78 W/m² -
1787847591 23.89° C 83% 1007.8 hPa 0 mm - 67 W/m² -
1787847287 23.89° C 82% 1008 hPa 0 mm - 68 W/m² -
1787846984 23.89° C 83% 1007.9 hPa 0 mm - 74 W/m² -
1787846683 23.89° C 83% 1008.1 hPa 0 mm - 72 W/m² -
1787846378 23.89° C 83% 1007.8 hPa 0 mm - 68 W/m² -

* Rain latest hour (hover to see other rain measurements)
** Current wind speed in m/s (hover to see current wind gust speed)